Vertical_Velocity
4 -0 3 -1 -1 1 2 -1 2 0 1 0 -1 5 6 2 -0 -3 -10 1 2 3 -1 -2 1 1 4 -1 5 8 2 -0 -4 2 -14 -2 1 3 3 -4 -2 -3 7 -1 3
2 1 0 0 3 -1 -1 -2 -1 -1 -0 -1 0 0 1 3 3 -6 -7 1 1 -6 2 -2 -7 5 2 -3 0 4 2 -5 -3 -2 -2 -1 3 -0 0 -0 -3 -6 12 4 5
0 -1 -1 -0 1 -1 -2 -3 0 -4 0 0 1 1 1 -0 0 -16 -4 -4 6 -1 3 -1 -2 5 3 3 -4 -3 -2 -1 -4 -4 7 -0 0 1 -0 -1 -1 -2 -1 14 13
-3 -1 -2 -1 -1 -0 -1 2 -1 -3 -3 -1 -0 -2 -0 -3 -2 1 3 2 -1 2 1 -0 -3 1 1 1 -3 8 -1 0 -11 -7 3 -0 4 0 1 -7 -1 -0 -1 2 -0
-0 -2 -2 -1 -0 0 -0 1 1 1 0 -2 -1 0 2 -0 -14 4 1 0 -3 -3 -3 -1 -1 2 -0 1 1 7 -4 1 -2 -1 -2 8 -3 -6 -3 -3 -3 -10 -3 -7 -1
-0 -0 1 -3 -1 -1 2 -1 -1 2 0 2 -0 -2 -1 4 -2 10 -4 1 -1 -3 0 -1 -9 -1 1 -1 6 -1 1 -5 -3 -3 0 12 -4 18 -10 -5 -7 -3 -3 -5 -2
1 1 -0 1 -1 -1 1 -3 3 -0 -0 -0 1 0 -1 -42 -5 10 1 9 -4 0 -2 12 5 14 5 -1 2 -4 6 0 -3 -6 -4 6 0 -2 -5 2 -4 -8 -1 -4 3
1 1 1 0 -0 0 -1 -0 -2 0 -3 -2 4 2 -13 -8 -6 2 5 2 10 1 -12 3 3 4 11 -2 -4 3 3 6 -8 1 -9 11 -19 -6 0 3 -4 -1 -3 10 5
-2 -2 1 2 1 0 -3 -1 -2 1 2 2 -0 2 -14 1 -6 7 6 -4 -1 -4 -6 -2 6 1 3 3 1 1 -1 1 -5 -1 -0 8 -9 -8 -2 1 -4 -4 -2 3 8
8 3 -0 -2 0 2 -1 -2 -2 -2 4 6 3 10 -3 -11 -3 -7 -1 1 4 8 12 6 4 1 0 3 -5 -4 1 -0 -1 -5 3 -0 -6 -3 -2 5 -4 -2 -4 7 0
2 3 2 1 2 -3 0 1 -2 -1 4 -11 -6 -5 2 1 4 1 -2 4 6 11 1 -0 4 -1 -5 -2 -1 2 3 1 -4 -5 10 -4 -1 -6 -5 6 1 -2 -1 3 6
1 4 0 -0 2 3 -1 -4 -0 -3 -3 -11 -2 2 2 -0 1 -0 2 1 7 -2 2 3 -1 -5 0 2 2 2 2 -9 -8 -3 12 -1 -6 -6 -0 -5 -4 -2 -4 3 2
3 3 7 3 6 3 -3 -3 -0 -3 3 -1 -3 3 -7 12 -4 -13 6 -4 -1 4 -1 -1 -2 2 4 1 6 -1 1 -2 0 -4 -5 4 -4 1 -5 3 5 0 -2 5 -8
4 5 6 4 5 3 -3 3 -5 7 4 -1 -2 -3 -0 12 -3 -16 3 -7 6 -6 -1 -4 -9 2 3 -0 3 6 -4 2 2 8 -2 3 -6 -2 -2 -2 1 -1 3 3 -0
5 8 1 6 1 -0 -3 -2 -0 6 1 1 5 4 4 -6 3 -5 9 20 -2 -4 6 -11 1 3 6 -18 3 -19 2 2 1 2 11 -9 9 -14 2 1 -4 -3 1 4 1
3 8 3 6 6 -3 0 2 -5 -3 -12 2 1 -1 3 2 -0 2 -4 14 3 5 2 -5 -0 1 -11 -4 -1 -4 1 -1 1 3 10 -11 10 -7 -2 -12 -2 1 3 0 2
10 4 -0 5 -9 -2 1 -3 -5 -1 -4 2 -0 2 0 -0 1 3 1 6 -0 5 1 2 -4 0 -2 1 1 10 1 -0 6 6 -10 -1 15 -17 -2 -2 -5 -3 3 5 3
22 6 6 -1 -3 2 -3 -3 3 -6 -1 2 0 3 0 -1 -2 0 1 3 4 2 0 -0 0 -0 -2 -11 -10 -4 -7 -3 -5 -2 -8 2 -2 -18 -9 -1 3 3 0 5 5
51 21 23 -15 1 7 -5 3 -10 -2 -3 -1 2 3 1 2 5 3 0 -1 -3 -4 -2 1 -2 -0 1 -2 -6 -5 8 -25 3 0 1 -5 -2 -5 -0 2 3 3 3 3 2
36 19 7 3 8 15 1 -4 -1 -1 -2 -0 0 -0 0 -1 4 3 1 -7 -4 -4 0 -2 1 -3 -11 15 6 -6 -7 7 3 -0 2 -0 -0 -4 1 2 3 5 2 4 5
24 7 0 11 8 12 -1 -3 0 -2 -5 -2 -1 1 -2 -2 -2 -0 -5 -9 -0 -0 1 -1 5 4 6 1 -8 11 9 5 -1 2 2 -2 -6 -4 -3 -3 -3 -0 1 -1 0
7 4 8 16 3 -0 -0 -4 -2 0 2 1 3 1 -0 -0 0 2 -4 -4 -1 -5 -1 -7 0 0 -8 -0 -2 -5 -4 -4 -1 0 -3 -4 -7 1 -2 -1 -2 1 1 3 -0
-4 2 28 2 -0 1 3 -1 -2 3 -1 1 0 0 1 -1 4 1 -0 -7 -1 -2 -9 -2 -2 1 6 9 11 0 -2 -2 -0 2 -1 -5 -5 -0 0 1 3 -2 3 2 -1
-5 1 13 15 2 -3 0 -2 1 -0 -1 1 -2 7 4 2 0 -3 0 0 2 -2 0 -0 1 1 1 3 -5 1 2 1 -2 1 -2 -2 1 1 1 0 2 4 2 0 -1
1 1 -6 1 5 0 1 0 0 -0 1 2 -1 0 -4 1 1 -1 0 1 7 -2 2 1 1 4 -3 -2 2 -3 -1 1 -1 -2 -4 -2 -2 -3 -3 -3 -2 -2 4 2 2
-11 -4 5 -0 2 5 0 -1 -1 2 2 0 4 -3 2 1 -4 -2 -3 -1 -5 4 -0 2 -5 2 -2 1 -1 0 0 0 -0 0 -0 0 -1 -2 1 0 2 0 -0 0 1
4 -10 -1 1 2 3 -5 -6 -7 -1 -4 -4 -4 4 4 -18 -2 -5 -2 -1 -1 -4 -0 1 1 -0 0 0 -1 -4 -5 -0 -0 -0 -4 -2 -6 0 2 1 -0 1 -0 -3 -4
Height
1494 1493 1492 1492 1491 1490 1489 1489 1489 1489 1491 1492 1494 1494 1496 1498 1499 1499 1499 1503 1503 1502 1502 1504 1505 1506 1507 1508 1510 1510 1516 1512 1508 1508 1499 1495 1496 1492 1492 1493 1495 1496 1496 1496 1495
1491 1490 1490 1490 1489 1488 1487 1487 1487 1488 1489 1490 1491 1492 1494 1495 1496 1494 1495 1498 1500 1500 1502 1503 1502 1503 1504 1505 1507 1505 1507 1502 1498 1498 1497 1493 1493 1490 1491 1491 1493 1494 1495 1493 1495
1488 1488 1488 1488 1487 1486 1486 1486 1486 1487 1487 1488 1489 1490 1492 1494 1495 1487 1489 1491 1494 1498 1500 1501 1502 1503 1502 1502 1501 1498 1496 1496 1495 1495 1493 1493 1492 1490 1489 1491 1491 1493 1492 1494 1495
1486 1486 1486 1486 1486 1485 1485 1485 1484 1485 1486 1486 1487 1488 1490 1493 1495 1486 1487 1488 1489 1494 1497 1499 1500 1503 1501 1499 1497 1498 1493 1495 1494 1492 1490 1490 1488 1485 1485 1486 1488 1491 1490 1489 1490
1483 1484 1484 1484 1484 1484 1484 1485 1484 1484 1485 1484 1485 1487 1489 1490 1485 1485 1486 1488 1490 1492 1494 1496 1499 1501 1500 1496 1495 1491 1491 1489 1488 1488 1484 1485 1484 1483 1480 1483 1485 1487 1486 1485 1485
1481 1481 1481 1481 1482 1482 1482 1483 1483 1483 1483 1484 1484 1485 1488 1486 1482 1485 1485 1486 1489 1490 1491 1493 1495 1496 1495 1494 1493 1487 1486 1482 1482 1481 1481 1481 1479 1479 1476 1479 1482 1482 1481 1481 1481
1477 1477 1478 1478 1478 1479 1480 1481 1481 1481 1481 1483 1483 1483 1484 1478 1480 1481 1482 1484 1487 1488 1489 1491 1493 1495 1492 1489 1487 1485 1481 1477 1473 1476 1477 1480 1474 1472 1472 1476 1476 1476 1475 1476 1475
1473 1473 1474 1474 1475 1476 1477 1478 1479 1479 1480 1481 1482 1482 1477 1472 1475 1477 1479 1480 1483 1484 1486 1487 1489 1490 1489 1488 1484 1484 1481 1479 1471 1474 1473 1479 1470 1468 1469 1471 1470 1470 1469 1470 1471
1469 1469 1470 1471 1472 1473 1474 1476 1477 1477 1477 1478 1481 1480 1473 1470 1469 1472 1476 1477 1480 1483 1483 1484 1487 1485 1485 1486 1488 1486 1484 1481 1477 1471 1472 1471 1467 1465 1466 1467 1464 1464 1464 1463 1467
1464 1464 1465 1467 1469 1470 1471 1473 1473 1475 1476 1477 1478 1481 1470 1466 1468 1469 1472 1476 1479 1481 1483 1483 1482 1482 1484 1485 1482 1488 1487 1482 1478 1468 1470 1468 1463 1462 1459 1459 1458 1458 1458 1459 1460
1459 1459 1461 1463 1465 1466 1469 1471 1474 1474 1472 1469 1467 1466 1465 1465 1466 1468 1470 1474 1478 1480 1481 1478 1480 1479 1487 1484 1485 1483 1484 1481 1468 1466 1465 1460 1460 1454 1454 1454 1452 1452 1452 1455 1456
1453 1455 1456 1459 1461 1462 1465 1466 1468 1469 1467 1464 1462 1463 1462 1463 1466 1467 1469 1473 1475 1476 1478 1481 1466 1477 1478 1480 1482 1484 1484 1476 1467 1463 1463 1456 1452 1445 1445 1446 1444 1444 1447 1450 1454
1447 1450 1452 1455 1457 1459 1459 1461 1465 1467 1464 1457 1455 1455 1458 1462 1461 1463 1466 1467 1468 1473 1474 1472 1463 1467 1472 1476 1477 1477 1477 1473 1471 1465 1459 1458 1450 1441 1438 1437 1436 1437 1440 1444 1446
1442 1444 1447 1450 1456 1454 1456 1459 1462 1463 1461 1454 1454 1452 1452 1455 1456 1457 1459 1464 1465 1465 1469 1465 1464 1466 1470 1469 1471 1471 1466 1471 1471 1474 1469 1452 1455 1438 1432 1430 1428 1428 1432 1436 1441
1436 1439 1441 1445 1446 1449 1452 1455 1459 1463 1464 1451 1451 1451 1450 1453 1452 1451 1454 1458 1458 1461 1464 1458 1458 1459 1464 1457 1469 1462 1468 1470 1471 1472 1468 1458 1455 1433 1424 1425 1420 1418 1424 1429 1434
1428 1433 1437 1441 1443 1447 1449 1452 1458 1464 1462 1446 1448 1450 1450 1451 1450 1449 1453 1457 1457 1458 1457 1457 1456 1457 1453 1456 1462 1460 1469 1470 1468 1470 1464 1454 1457 1436 1420 1409 1406 1406 1417 1424 1430
1420 1425 1429 1434 1435 1442 1448 1450 1461 1458 1438 1441 1444 1446 1447 1445 1447 1447 1449 1452 1451 1455 1457 1453 1450 1453 1454 1458 1459 1462 1471 1473 1474 1469 1448 1443 1451 1429 1400 1396 1391 1401 1410 1418 1426
1411 1417 1421 1428 1431 1438 1445 1451 1450 1430 1433 1437 1440 1442 1441 1440 1441 1443 1444 1444 1450 1449 1450 1453 1451 1443 1443 1442 1447 1455 1462 1465 1458 1441 1435 1436 1441 1410 1391 1388 1385 1392 1403 1414 1423
1403 1409 1412 1421 1427 1433 1441 1442 1433 1426 1428 1435 1439 1436 1436 1434 1436 1438 1441 1436 1436 1443 1448 1442 1436 1427 1429 1433 1439 1446 1452 1448 1454 1450 1430 1423 1415 1398 1393 1394 1393 1399 1406 1414 1421
1396 1404 1408 1414 1422 1428 1433 1428 1425 1423 1429 1432 1433 1432 1430 1430 1433 1434 1432 1421 1427 1428 1433 1435 1432 1421 1428 1429 1437 1435 1438 1455 1457 1443 1426 1411 1407 1402 1397 1396 1398 1401 1406 1414 1420
1392 1397 1402 1407 1419 1423 1423 1421 1419 1422 1426 1431 1428 1428 1426 1427 1424 1428 1422 1416 1412 1414 1424 1432 1431 1420 1425 1415 1412 1425 1424 1433 1441 1436 1420 1417 1402 1383 1386 1389 1394 1398 1403 1409 1416
1387 1392 1398 1401 1413 1415 1414 1415 1417 1419 1423 1425 1426 1425 1421 1419 1422 1421 1417 1410 1402 1410 1420 1422 1421 1414 1407 1400 1404 1405 1409 1418 1433 1418 1422 1399 1402 1379 1380 1385 1389 1396 1402 1408 1415
1382 1389 1396 1397 1401 1405 1409 1411 1414 1416 1417 1419 1417 1419 1414 1412 1413 1408 1405 1398 1402 1405 1412 1416 1415 1399 1398 1402 1403 1407 1405 1406 1416 1398 1385 1397 1402 1384 1383 1387 1389 1394 1402 1408 1415
1377 1385 1389 1393 1394 1399 1404 1406 1409 1412 1412 1411 1409 1412 1409 1408 1407 1402 1400 1398 1397 1397 1404 1410 1403 1396 1382 1380 1389 1395 1395 1394 1396 1395 1387 1390 1391 1388 1388 1388 1390 1396 1401 1407 1414
1370 1375 1380 1384 1390 1394 1399 1401 1403 1406 1406 1405 1406 1402 1401 1402 1400 1396 1391 1393 1396 1395 1402 1404 1394 1387 1380 1380 1376 1375 1376 1381 1389 1385 1384 1387 1386 1389 1387 1386 1387 1393 1401 1408 1414
1367 1370 1379 1382 1387 1393 1395 1393 1394 1396 1399 1398 1399 1394 1396 1394 1390 1391 1388 1391 1392 1392 1394 1399 1393 1383 1375 1366 1369 1374 1373 1377 1383 1382 1382 1385 1383 1379 1383 1386 1390 1393 1399 1406 1413
1364 1370 1373 1376 1381 1387 1388 1389 1387 1391 1391 1390 1390 1389 1388 1383 1383 1387 1383 1385 1382 1386 1389 1391 1389 1382 1386 1374 1372 1381 1373 1373 1374 1374 1379 1387 1383 1378 1385 1387 1388 1393 1397 1402 1408